Torna al catalogo

TRYAD 2

AttivoScienzaSSO
NORAD 66761·PAYLOAD·🇯🇵 Japan
Questo nome del satellite non è ancora stato confermato da fonti ufficiali.

Lanciato Nov 28, 2025 da Vandenberg Space Force Base

Loading…

Prossimi Passaggi (prossime 24 ore)

TLE

AggiornatoSource: Space-Track

Epoca: Sep 13, 2026, 22:33 UTC

1 66761U 25276CZ  26256.93969488  .00007728  00000-0  32575-3 0  9994
2 66761  97.4110 329.8573 0001173  62.5718 297.5638 15.23601084 43960

Traccia TRYAD 2 in tempo reale con AllMySat

Download on the App Store